Weather in Portland

United States     43°39′26″N   70°16′09″W
temp.,
°C
wind,
m/s
gust,
m/s
humid.,
%
clouds,
%
prec.,
mm/h
press.,
hPa
HPBL,
m
15 june, tue
tue1523:00+15se2599100 0.6 1011246
02:00+15sse14100100 0.8 1009204
05:00+16sse12100100 0.3 1008131
08:00+17s1294100 0.4 1008306
11:00+22sse2364100 0.0 1007920
14:00+20sse3471100 0.2 1006552
17:00+22sse346431 0.7 1004755
20:00+16sse2499100 3.5 1005132
16 june, wed
wed1623:00+16nw129982 1.1 1004121
02:00+14nnw312942 1.1 1004394
05:00+13nnw31189100 0.0 1005321
08:00+15nnw31160100 0.0 1006590
11:00+22nnw46300 0.0 10062249
14:00+23nnw472654 0.0 10063028
17:00+23n573077 0.0 10062710
20:00+17nw22540 0.0 100849
17 june, thu
thu1723:00+13w29540 0.0 1010179
02:00+12w24571 0.0 101077
05:00+11w25632 0.0 101198
08:00+18nw36450 0.0 1012690
11:00+22wnw353036 0.0 10122588
14:00+24s2527100 0.0 10112921
17:00+24s352991 0.0 10101529
20:00+18ssw23534 0.0 1012117
18 june, fri
fri1823:00+14w11635 0.0 101416
02:00+12wnw2255100 0.0 101435
05:00+11nw11575 0.0 101516
08:00+19w123995 0.0 1015260
11:00+25s34275 0.0 10141759
14:00+27s56265 0.0 10131838
17:00+25s583259 0.0 1011762
20:00+20s31153100 0.0 1012379
19 june, sat
sat1923:00+19ssw3126078 0.0 1011371
02:00+19ssw385712 0.0 1010301
05:00+17ssw396474 0.0 1009313
08:00+21ssw4954100 0.0 1008540
11:00+27ssw5745100 0.0 10081066
14:00+27ssw4853100 0.5 10071302
17:00+22sse4874100 0.1 1006307
20:00+18s31099100 2.9 1006289